CW9861 Weather Reports


Display with metric or nautical units.
time (UTC)temp
F
wind
direction
speed
MPH
gust
MPH
rain 1hr
in
rain 24hr
in
rain mn
in
humidity
%
barometer
mb
20260906220500 76 56 1.0 2.0 0.00 0.00 0.00 63 1018.5
20260906220002 76 41 1.0 2.0 0.00 0.00 0.00 62 1018.6
20260906215500 76 60 0.0 2.0 0.00 0.00 0.00 65 1018.6
20260906215000 76 126 0.0 2.0 0.00 0.00 0.00 64 1018.5
20260906214500 76 64 1.0 2.0 0.00 0.00 0.00 63 1018.6
20260906214000 76 313 0.0 3.0 0.00 0.00 0.00 63 1018.5
20260906213500 77 69 1.0 3.0 0.00 0.00 0.00 61 1018.6
20260906213001 77 81 1.0 3.0 0.00 0.00 0.00 63 1018.5
20260906212500 76 76 1.0 4.0 0.00 0.00 0.00 62 1018.6
20260906212001 77 316 1.0 2.0 0.00 0.00 0.00 59 1018.6
20260906211500 77 116 0.0 2.0 0.00 0.00 0.00 60 1018.6
20260906211001 77 2 1.0 3.0 0.00 0.00 0.00 56 1018.6
20260906210500 77 82 2.0 3.0 0.00 0.00 0.00 63 1018.6
20260906205959 78 117 1.0 3.0 0.00 0.00 0.00 64 1018.6
20260906205459 78 65 1.0 3.0 0.00 0.00 0.00 62 1018.6
20260906204959 78 68 1.0 3.0 0.00 0.00 0.00 61 1018.5
20260906204459 78 40 1.0 3.0 0.00 0.00 0.00 59 1018.4
20260906203959 78 55 1.0 4.0 0.00 0.00 0.00 65 1018.4
20260906203459 77 106 1.0 4.0 0.00 0.00 0.00 62 1018.5
20260906202959 78 66 1.0 3.0 0.00 0.00 0.00 59 1018.5
20260906202459 78 82 1.0 4.0 0.00 0.00 0.00 60 1018.5
20260906201959 78 89 1.0 3.0 0.00 0.00 0.00 62 1018.6
20260906191456 76 41 1.0 3.0 0.00 0.00 0.00 64 1018.9
20260906190956 78 68 1.0 4.0 0.00 0.00 0.00 61 1018.9
20260906190457 77 124 2.0 5.0 0.00 0.00 0.00 62 1018.8
20260906185956 77 86 1.0 4.0 0.00 0.00 0.00 61 1018.8
20260906185456 78 109 1.0 4.0 0.00 0.00 0.00 60 1018.9
20260906184956 78 87 1.0 4.0 0.00 0.00 0.00 62 1018.8
20260906184456 78 97 1.0 4.0 0.00 0.00 0.00 62 1018.8
20260906183956 78 330 1.0 6.0 0.00 0.00 0.00 67 1018.8
20260906183455 78 57 1.0 5.0 0.00 0.00 0.00 63 1018.9
20260906182956 77 51 1.0 4.0 0.00 0.00 0.00 67 1019.1
20260906182456 76 90 1.0 4.0 0.00 0.00 0.00 71 1019.0
20260906181956 75 74 0.0 5.0 0.00 0.00 0.00 68 1019.2
20260906181456 75 82 1.0 5.0 0.00 0.00 0.00 65 1019.2
20260906180957 76 11 1.0 5.0 0.00 0.00 0.00 65 1019.2
20260906180456 76 59 2.0 5.0 0.00 0.00 0.00 65 1019.2
20260906175957 77 59 0.0 4.0 0.00 0.00 0.00 65 1019.3
20260906175456 76 59 1.0 4.0 0.00 0.00 0.00 65 1019.4
20260906174956 76 47 1.0 4.0 0.00 0.00 0.00 66 1019.5
20260906174456 76 56 1.0 3.0 0.00 0.00 0.00 70 1019.4
20260906173956 76 8 1.0 2.0 0.00 0.00 0.00 69 1019.5
20260906173456 75 103 1.0 2.0 0.00 0.00 0.00 70 1019.5
20260906172956 75 66 0.0 2.0 0.00 0.00 0.00 69 1019.6
20260906172457 75 75 0.0 5.0 0.00 0.00 0.00 69 1019.5
20260906171956 75 118 2.0 5.0 0.00 0.00 0.00 66 1019.6
20260906171456 75 68 0.0 7.0 0.00 0.00 0.00 66 1019.6
20260906170957 77 93 1.0 7.0 0.00 0.00 0.00 69 1019.6
20260906170456 76 111 1.0 3.0 0.00 0.00 0.00 64 1019.6
20260906170000 76 84 1.0 3.0 0.00 0.00 0.00 65 1019.6
20260906165458 76 24 1.0 3.0 0.00 0.00 0.00 69 1019.7
20260906164957 75 70 0.0 6.0 0.00 0.00 0.00 70 1019.8
20260906164457 75 64 2.0 6.0 0.00 0.00 0.00 68 1019.7
20260906163957 75 356 1.0 4.0 0.00 0.00 0.00 69 1019.8
20260906163457 75 4 1.0 4.0 0.00 0.00 0.00 68 1019.8
20260906162957 75 89 2.0 5.0 0.00 0.00 0.00 71 1019.8
20260906162457 75 72 1.0 3.0 0.00 0.00 0.00 71 1019.9
20260906161957 75 53 1.0 5.0 0.00 0.00 0.00 68 1020.0
20260906161457 74 37 2.0 5.0 0.00 0.00 0.00 72 1020.0
20260906153956 73 118 1.0 5.0 0.00 0.00 0.00 75 1020.0
20260906153457 73 45 1.0 4.0 0.00 0.00 0.00 76 1020.0
20260906152956 72 11 1.0 4.0 0.00 0.00 0.00 76 1019.9
20260906152456 72 76 1.0 4.0 0.00 0.00 0.00 76 1019.9
20260906151956 72 54 1.0 4.0 0.00 0.00 0.00 74 1019.8
20260906151457 72 103 1.0 4.0 0.00 0.00 0.00 77 1019.8
20260906150956 72 37 1.0 3.0 0.00 0.00 0.00 77 1019.8
20260906150458 71 82 1.0 5.0 0.00 0.00 0.00 78 1019.8
20260906145957 71 74 2.0 4.0 0.00 0.00 0.00 76 1019.8
20260906145457 71 53 1.0 3.0 0.00 0.00 0.00 80 1019.7
20260906144956 70 43 2.0 6.0 0.00 0.00 0.00 80 1019.8
20260906144456 70 72 0.0 6.0 0.00 0.00 0.00 81 1019.7
20260906143957 69 71 2.0 5.0 0.00 0.00 0.00 80 1019.7
20260906143456 69 59 3.0 5.0 0.00 0.00 0.00 81 1019.6
20260906142956 69 68 2.0 5.0 0.00 0.00 0.00 81 1019.5
20260906142456 69 132 1.0 3.0 0.00 0.00 0.00 82 1019.6
20260906141956 69 150 0.0 3.0 0.00 0.00 0.00 84 1019.4
20260906141456 68 105 1.0 3.0 0.00 0.00 0.00 84 1019.2
20260906140956 68 68 0.0 2.0 0.00 0.00 0.00 84 1019.2
20260906132956 63 73 0.0 3.0 0.00 0.00 0.00 89 1019.4
20260906132457 62 101 0.0 3.0 0.00 0.00 0.00 90 1019.4
20260906131958 61 91 0.0 2.0 0.00 0.00 0.00 91 1019.3
20260906131456 60 96 0.0 3.0 0.00 0.00 0.00 91 1019.4
20260906130957 60 43 1.0 3.0 0.00 0.00 0.00 91 1019.4
20260906130457 59 95 0.0 3.0 0.00 0.00 0.00 92 1019.4
20260906125958 59 61 1.0 3.0 0.00 0.00 0.00 92 1019.2
20260906125457 58 57 1.0 2.0 0.00 0.00 0.00 92 1019.2
20260906124956 56 90 0.0 2.0 0.00 0.00 0.00 92 1019.2
20260906124457 56 90 1.0 2.0 0.00 0.00 0.00 91 1019.2
20260906123956 55 161 0.0 1.0 0.00 0.00 0.00 91 1019.2
20260906123457 55 249 0.0 2.0 0.00 0.00 0.00 91 1019.3
20260906122957 54 249 0.0 2.0 0.00 0.00 0.00 91 1019.2
20260906122457 54 59 0.0 0.0 0.00 0.00 0.00 91 1019.0
20260906121957 54 246 0.0 0.0 0.00 0.00 0.00 91 1019.0
20260906121457 54 246 0.0 1.0 0.00 0.00 0.00 91 1018.8
20260906120957 54 246 0.0 1.0 0.00 0.00 0.00 90 1018.7
20260906120457 54 251 0.0 1.0 0.00 0.00 0.00 90 1018.6
20260906115957 54 251 0.0 1.0 0.00 0.00 0.00 90 1018.6
20260906115456 53 251 0.0 0.0 0.00 0.00 0.00 90 1018.6
20260906114956 53 251 0.0 0.0 0.00 0.00 0.00 90 1018.6
20260906114455 54 251 0.0 1.0 0.00 0.00 0.00 90 1018.5
20260906113955 54 251 0.0 1.0 0.00 0.00 0.00 90 1018.5
20260906113455 54 179 0.0 1.0 0.00 0.00 0.00 90 1018.6
20260906112956 54 234 0.0 1.0 0.00 0.00 0.00 90 1018.6
20260906112457 54 32 0.0 0.0 0.00 0.00 0.00 90 1018.5
20260906111956 54 32 0.0 0.0 0.00 0.00 0.00 90 1018.3
20260906111456 54 32 0.0 0.0 0.00 0.00 0.00 90 1018.4
20260906110956 54 32 0.0 0.0 0.00 0.00 0.00 90 1018.3
20260906110456 54 32 0.0 0.0 0.00 0.00 0.00 90 1018.3
20260906105957 54 32 0.0 0.0 0.00 0.00 0.00 90 1018.3
20260906102456 55 37 0.0 0.0 0.00 0.00 0.00 90 1018.3
20260906101956 55 37 0.0 0.0 0.00 0.00 0.00 90 1018.3
20260906101456 55 37 0.0 0.0 0.00 0.00 0.00 90 1018.2
20260906100956 56 34 0.0 0.0 0.00 0.00 0.00 90 1018.1
20260906100455 56 34 0.0 0.0 0.00 0.00 0.00 90 1018.2
20260906095956 56 34 0.0 0.0 0.00 0.00 0.00 90 1018.3
20260906095456 56 34 0.0 0.0 0.00 0.00 0.00 90 1018.3
20260906094958 56 34 0.0 0.0 0.00 0.00 0.00 90 1018.3
20260906094456 56 34 0.0 0.0 0.00 0.00 0.00 90 1018.1
20260906093957 56 34 0.0 0.0 0.00 0.00 0.00 90 1018.1
20260906093457 57 34 0.0 0.0 0.00 0.00 0.00 90 1018.1
20260906092957 57 34 0.0 0.0 0.00 0.00 0.00 90 1018.0
20260906092457 57 34 0.0 0.0 0.00 0.00 0.00 90 1017.9
20260906091957 57 34 0.0 0.0 0.00 0.00 0.00 90 1017.9
20260906091458 57 34 0.0 0.0 0.00 0.00 0.00 90 1017.7
20260906090957 57 34 0.0 0.0 0.00 0.00 0.00 90 1017.8
20260906090457 57 34 0.0 1.0 0.00 0.00 0.00 90 1017.8
20260906085958 57 34 0.0 1.0 0.00 0.00 0.00 90 1017.7
20260906085456 57 34 0.0 1.0 0.00 0.00 0.00 90 1017.7
20260906084957 57 34 0.0 0.0 0.00 0.00 0.00 90 1017.7
20260906084456 57 34 0.0 1.0 0.00 0.00 0.00 90 1017.7
20260906083957 57 34 0.0 1.0 0.00 0.00 0.00 90 1017.8
20260906083456 57 60 0.0 0.0 0.00 0.00 0.00 90 1017.6
20260906082957 57 72 0.0 0.0 0.00 0.00 0.00 90 1017.5
20260906082457 57 72 0.0 0.0 0.00 0.00 0.00 90 1017.4
20260906081956 57 72 0.0 0.0 0.00 0.00 0.00 90 1017.4
20260906081458 58 72 0.0 0.0 0.00 0.00 0.00 90 1017.4
20260906080956 58 72 0.0 0.0 0.00 0.00 0.00 90 1017.4
20260906080458 58 72 0.0 0.0 0.00 0.00 0.00 90 1017.4
20260906075959 58 68 0.0 0.0 0.00 0.00 0.00 90 1017.4
20260906075457 58 84 0.0 2.0 0.00 0.00 0.00 90 1017.5
20260906074957 58 84 0.0 2.0 0.00 0.00 0.00 90 1017.6
20260906074457 58 34 0.0 1.0 0.00 0.00 0.00 90 1017.6
20260906073957 58 75 0.0 1.0 0.00 0.00 0.00 90 1017.4
20260906073457 57 75 0.0 0.0 0.00 0.00 0.00 89 1017.4
20260906072957 57 75 0.0 1.0 0.00 0.00 0.00 89 1017.4
20260906072457 57 75 0.0 1.0 0.00 0.00 0.00 89 1017.3
20260906071957 57 75 0.0 0.0 0.00 0.00 0.00 88 1017.4
20260906071457 57 75 0.0 0.0 0.00 0.00 0.00 88 1017.4
20260906070956 57 75 0.0 0.0 0.00 0.00 0.00 88 1017.5
20260906070457 58 75 0.0 0.0 0.00 0.00 0.00 88 1017.6
20260906065959 58 75 0.0 0.0 0.00 0.00 0.00 88 1017.6
20260906065456 58 75 0.0 0.0 0.00 0.00 0.00 88 1017.6
20260906064956 58 75 0.0 0.0 0.00 0.00 0.00 88 1017.7
20260906064456 58 75 0.0 0.0 0.00 0.00 0.00 88 1017.7
20260906063958 58 75 0.0 0.0 0.00 0.00 0.00 87 1017.7
20260906063456 58 75 0.0 0.0 0.00 0.00 0.00 87 1017.6
20260906062957 59 75 0.0 0.0 0.00 0.00 0.00 87 1017.6
20260906062456 59 75 0.0 0.0 0.00 0.00 0.00 87 1017.5
20260906061957 59 75 0.0 0.0 0.00 0.00 0.00 87 1017.4
20260906054456 60 75 0.0 0.0 0.00 0.00 0.00 87 1017.5
20260906053956 60 75 0.0 0.0 0.00 0.00 0.00 88 1017.4
20260906053456 60 75 0.0 0.0 0.00 0.00 0.00 87 1017.4
20260906052957 61 75 0.0 1.0 0.00 0.00 0.00 87 1017.3
20260906052456 61 75 0.0 1.0 0.00 0.00 0.00 87 1017.1
20260906051955 61 75 0.0 0.0 0.00 0.00 0.00 87 1017.2
20260906051456 61 75 0.0 0.0 0.00 0.00 0.00 87 1017.3
20260906050956 61 75 0.0 0.0 0.00 0.00 0.00 87 1017.3
20260906050456 61 75 0.0 0.0 0.00 0.00 0.00 87 1017.2
20260906045957 62 75 0.0 0.0 0.00 0.00 0.00 87 1017.1
20260906045458 62 75 0.0 0.0 0.00 0.00 0.00 87 1017.0
20260906044957 62 75 0.0 1.0 0.00 0.00 0.00 87 1016.9
20260906044457 62 53 0.0 0.0 0.00 0.00 0.00 87 1016.9
20260906040958 63 276 0.0 1.0 0.00 0.00 0.00 86 1016.6
20260906040457 63 70 0.0 2.0 0.00 0.00 0.00 86 1016.7
20260906040002 63 70 0.0 2.0 0.00 0.00 0.00 86 1016.7
20260906035457 63 78 0.0 1.0 0.00 0.00 0.00 85 1016.7
20260906034958 63 78 0.0 0.0 0.00 0.00 0.00 85 1016.7
20260906034459 63 78 0.0 0.0 0.00 0.00 0.00 85 1016.7
20260906033958 64 78 0.0 0.0 0.00 0.00 0.00 85 1016.5
20260906033457 64 78 0.0 1.0 0.00 0.00 0.00 85 1016.4
20260906032957 64 78 0.0 1.0 0.00 0.00 0.00 85 1016.4
20260906032501 64 78 0.0 1.0 0.00 0.00 0.00 85 1016.6
20260906031958 64 78 0.0 1.0 0.00 0.00 0.00 85 1016.4
20260906031458 64 78 0.0 1.0 0.00 0.00 0.00 84 1016.4
20260906030957 64 78 0.0 1.0 0.00 0.00 0.00 84 1016.4
20260906030458 64 77 0.0 0.0 0.00 0.00 0.00 84 1016.2
20260906025957 65 91 0.0 1.0 0.00 0.00 0.00 84 1016.2
20260906025457 65 105 0.0 1.0 0.00 0.00 0.00 84 1016.2
20260906024958 65 105 0.0 1.0 0.00 0.00 0.00 84 1016.1
20260906024457 65 105 0.0 1.0 0.00 0.00 0.00 84 1016.3
20260906023957 65 50 0.0 1.0 0.00 0.00 0.00 84 1016.1
20260906023457 65 50 0.0 1.0 0.00 0.00 0.00 84 1016.2
20260906022958 65 307 0.0 1.0 0.00 0.00 0.00 84 1016.2
20260906015458 66 83 0.0 0.0 0.00 0.00 0.00 83 1015.9
20260906014957 66 83 0.0 0.0 0.00 0.00 0.00 83 1015.7
20260906014457 67 83 0.0 0.0 0.00 0.00 0.00 83 1015.7
20260906013958 67 83 0.0 0.0 0.00 0.00 0.00 82 1015.7
20260906013457 67 83 0.0 0.0 0.00 0.00 0.00 82 1015.7
20260906012957 67 83 0.0 0.0 0.00 0.00 0.00 82 1015.7
20260906012458 68 83 0.0 0.0 0.00 0.00 0.00 82 1015.6
20260906011957 68 83 0.0 0.0 0.00 0.00 0.00 82 1015.5
20260906011458 69 83 0.0 0.0 0.00 0.00 0.00 82 1015.3
20260906010957 69 83 0.0 0.0 0.00 0.00 0.00 80 1015.3
20260906010457 69 83 0.0 0.0 0.00 0.00 0.00 80 1015.3
20260906005957 69 83 0.0 0.0 0.00 0.00 0.00 80 1015.2
20260906005457 70 83 0.0 0.0 0.00 0.00 0.00 81 1015.1
20260906004957 70 83 0.0 0.0 0.00 0.00 0.00 80 1015.0
20260906004456 71 83 0.0 0.0 0.00 0.00 0.00 79 1014.9
20260906003956 71 83 0.0 0.0 0.00 0.00 0.00 79 1014.9
20260906003456 71 83 0.0 0.0 0.00 0.00 0.00 79 1015.0
20260906002956 72 83 0.0 0.0 0.00 0.00 0.00 79 1015.0
20260906002457 72 83 0.0 0.0 0.00 0.00 0.00 79 1015.0
20260906001956 72 83 0.0 0.0 0.00 0.00 0.00 79 1015.0
20260906001457 72 83 0.0 0.0 0.00 0.00 0.00 79 1015.0
20260906000956 73 83 0.0 0.0 0.00 0.00 0.00 78 1015.0
20260906000456 73 83 0.0 0.0 0.00 0.00 0.00 78 1015.2
20260905235957 73 83 0.0 1.0 0.00 0.00 0.00 78 1015.1
20260905235457 73 83 0.0 1.0 0.00 0.00 0.00 77 1015.0
20260905234957 74 83 0.0 2.0 0.00 0.00 0.00 77 1014.9
20260905234457 74 86 1.0 2.0 0.00 0.00 0.00 76 1014.9
20260905233957 74 91 0.0 1.0 0.00 0.00 0.00 77 1015.0
20260905233457 74 68 0.0 1.0 0.00 0.00 0.00 77 1015.0
20260905232957 74 68 0.0 1.0 0.00 0.00 0.00 77 1015.0
20260905232457 74 77 0.0 1.0 0.00 0.00 0.00 78 1015.0
20260905231957 74 77 0.0 1.0 0.00 0.00 0.00 77 1015.1
20260905231457 74 93 0.0 2.0 0.00 0.00 0.00 77 1015.0
20260905230958 74 86 0.0 1.0 0.00 0.00 0.00 77 1015.0
20260905230457 75 86 0.0 3.0 0.00 0.00 0.00 77 1014.9
20260905225957 75 54 0.0 2.0 0.00 0.00 0.00 76 1014.8
20260905225456 75 78 1.0 2.0 0.00 0.00 0.00 75 1014.7
20260905224957 76 70 0.0 2.0 0.00 0.00 0.00 75 1014.7
20260905224456 76 74 0.0 3.0 0.00 0.00 0.00 74 1014.7
20260905223956 76 48 0.0 4.0 0.00 0.00 0.00 73 1014.6
20260905223456 76 23 2.0 4.0 0.00 0.00 0.00 72 1014.6
20260905222956 77 78 0.0 2.0 0.00 0.00 0.00 74 1014.5
20260905222456 77 66 1.0 4.0 0.00 0.00 0.00 73 1014.5
20260905221956 78 59 0.0 4.0 0.00 0.00 0.00 73 1014.6
20260905221457 78 357 1.0 4.0 0.00 0.00 0.00 72 1014.5
20260905220956 78 89 1.0 4.0 0.00 0.00 0.00 73 1014.4